Weather History for KBIH - April, 2014

Change the Weather History Date:

Wednesday, April 2, 2014

  Actual Average Record
Temperature  
Mean Temperature 45 °F 51 °F  
Max Temperature 55 °F 69 °F 89 °F (1961)
Min Temperature 35 °F 34 °F 19 °F (1975)
Degree Days  
Heating Degree Days 20 14  
Month to date heating degree days 43 28  
Since 1 July heating degree days 3428 3751  
Cooling Degree Days 0 0  
Month to date cooling degree days 0 0  
Year to date cooling degree days 0 0  
Moisture  
Dew Point 24 °F    
Average Humidity 48    
Maximum Humidity 70    
Minimum Humidity 26    
Precipitation  
Precipitation 0.02 in 0.01 in 0.15 in (1967)
Month to date precipitation 0.07 0.02  
Year to date precipitation 2.02 2.45  
Snow  
Snow 0.00 in 0.00 in 1.30 in (1967)
Month to date snowfall 0.0  
Since 1 July snowfall 0.5 6.8  
Snow Depth 0.00 in    
Sea Level Pressure  
Sea Level Pressure 29.86 in    
Wind  
Wind Speed 8 mph (NW)    
Max Wind Speed 23 mph    
Max Gust Speed 29 mph    
Visibility 9 miles    
Events Rain , Snow    
T = Trace of Precipitation, MM = Missing Value Source: NWS Daily Summary

Daily Weather History Graph

Daily Weather History Graph

Search for Another Location

Airport or City:

Trip Planner

Search our weather history database for the weather conditions in past years. The results will help you decide how hot, cold, wet, or windy it might be!

Date:

Astronomy

Apr. 02, 2014 Rise Set
Actual Time 6:37 AM PDT 7:17 PM PDT
Civil Twilight 6:11 AM PDT 7:43 PM PDT
Nautical Twilight 5:40 AM PDT 8:14 PM PDT
Astronomical Twilight 5:08 AM PDT 8:46 PM PDT
Moon 8:28 AM PDT (4/2) 10:40 PM PDT (4/2)
Length of Visible Light 13h 32m
Length of Day
12h 39m
Waxing Crescent, 11% of the Moon is Illuminated
Apr 2
Waxing Crescent
Apr 7
First Quarter
Apr 15
Full
Apr 22
Last Quarter
Apr 28
New

Hourly Weather History & Observations

Time (PDT) Temp. Windchill Dew Point Humidity Pressure Visibility Wind Dir Wind Speed Gust Speed Precip Events Conditions
12:56 AM 39.0 °F 32.8 °F 14.0 °F 36% 29.73 in 10.0 mi North 9.2 mph - N/A   Overcast
1:56 AM 39.0 °F 33.4 °F 15.1 °F 38% 29.71 in 10.0 mi NNE 8.1 mph - N/A   Mostly Cloudy
2:56 AM 39.9 °F 36.7 °F 15.1 °F 36% 29.71 in 10.0 mi NW 4.6 mph - N/A   Overcast
3:56 AM 39.9 °F 35.1 °F 15.1 °F 36% 29.70 in 10.0 mi WNW 6.9 mph - N/A   Overcast
5:56 AM 41.0 °F 37.1 °F 21.9 °F 47% 29.75 in 10.0 mi ENE 5.8 mph - N/A   Overcast
6:56 AM 37.9 °F 32.1 °F 28.0 °F 68% 29.80 in 9.0 mi NNW 8.1 mph - 0.00 in   Overcast
7:56 AM 36.0 °F 30.3 °F 30.9 °F 82% 29.86 in 9.0 mi NNW 6.9 mph - 0.00 in Snow Light Snow
8:07 AM 35.1 °F 29.3 °F 32.0 °F 89% 29.88 in 2.5 mi NW 6.9 mph - 0.00 in Snow Light Snow
8:18 AM 35.1 °F 30.1 °F 32.0 °F 89% 29.89 in 1.5 mi NNW 5.8 mph - 0.01 in Snow Light Snow
8:32 AM 35.1 °F 31.0 °F 32.0 °F 89% 29.89 in 2.5 mi NW 4.6 mph - 0.01 in Snow Light Snow
8:39 AM 35.1 °F 32.2 °F 33.1 °F 92% 29.89 in 4.0 mi WNW 3.5 mph - 0.01 in Snow Light Snow
8:56 AM 36.0 °F - 33.1 °F 89% 29.88 in 9.0 mi Calm Calm - 0.01 in   Overcast
9:56 AM 39.9 °F - 30.0 °F 68% 29.89 in 10.0 mi Calm Calm - N/A   Clear
10:56 AM 46.9 °F - 27.0 °F 46% 29.88 in 10.0 mi Variable 3.5 mph - N/A   Clear
11:56 AM 48.9 °F - 25.0 °F 39% 29.85 in 10.0 mi Variable 3.5 mph - N/A   Clear
12:56 PM 48.9 °F - 21.9 °F 35% 29.85 in 10.0 mi Calm Calm - N/A   Mostly Cloudy
1:56 PM 52.0 °F - 21.9 °F 31% 29.84 in 10.0 mi WNW 17.3 mph - N/A   Mostly Cloudy
2:56 PM 46.9 °F - 30.0 °F 52% 29.86 in 9.0 mi West 17.3 mph 23.0 mph 0.00 in Rain Light Rain
3:12 PM 50.0 °F - 28.9 °F 44% 29.89 in 10.0 mi WSW 12.7 mph - 0.00 in   Mostly Cloudy
3:56 PM 53.1 °F - 24.1 °F 32% 29.84 in 10.0 mi West 8.1 mph - 0.00 in   Overcast
4:56 PM 53.1 °F - 19.0 °F 26% 29.83 in 10.0 mi North 15.0 mph - N/A   Mostly Cloudy
5:56 PM 48.9 °F - 27.0 °F 43% 29.86 in 10.0 mi West 9.2 mph - 0.01 in   Scattered Clouds
6:56 PM 50.0 °F - 21.0 °F 32% 29.87 in 10.0 mi NW 11.5 mph - N/A   Partly Cloudy
7:56 PM 48.0 °F - 19.0 °F 32% 29.91 in 10.0 mi NW 10.4 mph - N/A   Clear
8:56 PM 46.9 °F - 21.9 °F 37% 29.95 in 10.0 mi NNW 18.4 mph - N/A   Clear
9:56 PM 44.1 °F 37.4 °F 21.9 °F 42% 29.98 in 10.0 mi North 13.8 mph - N/A   Partly Cloudy
10:56 PM 43.0 °F 36.4 °F 23.0 °F 45% 29.99 in 10.0 mi North 12.7 mph - N/A   Clear
11:56 PM 39.9 °F 34.5 °F 23.0 °F 51% 30.01 in 10.0 mi North 8.1 mph - N/A   Clear